Belen, NM

6:58 PM MDT on July 24, 2017 (GMT -0600)
Belen

Weather History for KE80 - November, 2011

Change the Weather History Date:

Friday, November 11, 2011

  Actual Average (KABQ) Record (KABQ)
Temperature  
Mean Temperature 41 °F -  
Max Temperature 52 °F 59 °F 73 °F (1918)
Min Temperature 30 °F 33 °F 12 °F (1904)
Degree Days  
Heating Degree Days 24    
Moisture  
Dew Point 15 °F    
Average Humidity 37    
Maximum Humidity 55    
Minimum Humidity 22    
Precipitation  
Precipitation 0.00 in - - ()
Sea Level Pressure  
Sea Level Pressure 30.15 in    
Wind  
Wind Speed 3 mph (SSW)    
Max Wind Speed 12 mph    
Max Gust Speed -    
Visibility 10 miles    
Events      
Averages and records for this station are not official NWS values.
T = Trace of Precipitation, MM = Missing Value Source: NWS Daily Summary

Daily Weather History Graph

Daily Weather History Graph

Search for Another Location

Airport or City:

Trip Planner

Search our weather history database for the weather conditions in past years. The results will help you decide how hot, cold, wet, or windy it might be!

Date:

Astronomy

Nov. 11, 2011 Rise Set
Actual Time 6:37 AM MST 5:05 PM MST
Civil Twilight 6:10 AM MST 5:31 PM MST
Nautical Twilight 5:40 AM MST 6:02 PM MST
Astronomical Twilight 5:10 AM MST 6:31 PM MST
Moon 5:40 PM MST (11/11) 7:24 AM MST (11/11)
Length of Visible Light 11h 21m
Length of Day
10h 28m
Full, 99% of the Moon is Illuminated
Nov 11
Full
Nov 18
Last Quarter
Nov 24
New
Dec 2
First Quarter
Dec 10
Full

Hourly Weather History & Observations

Time (MST) Temp. Windchill Dew Point Humidity Pressure Visibility Wind Dir Wind Speed Gust Speed Precip Events Conditions
12:15 AM 32.0 °F - 12.0 °F 44% 30.27 in 10.0 mi Calm Calm - N/A   Clear
12:35 AM 32.0 °F - 12.2 °F 44% 30.27 in 10.0 mi Calm Calm - N/A   Clear
1:15 AM 31.6 °F - 12.6 °F 45% 30.25 in 10.0 mi Calm Calm - N/A   Clear
1:35 AM 32.0 °F - 12.6 °F 45% 30.25 in 10.0 mi Calm Calm - N/A   Clear
1:55 AM 30.7 °F 26.0 °F 12.9 °F 48% 30.25 in 10.0 mi NW 4.6 mph - N/A   Clear
2:15 AM 30.4 °F 25.6 °F 13.1 °F 49% 30.25 in 10.0 mi WNW 4.6 mph - N/A   Clear
2:35 AM 30.6 °F 24.7 °F 12.9 °F 48% 30.24 in 10.0 mi NW 5.8 mph - N/A   Clear
2:55 AM 30.7 °F - 13.1 °F 48% 30.23 in 10.0 mi Calm Calm - N/A   Clear
3:15 AM 30.6 °F 27.1 °F 13.1 °F 48% 30.23 in 10.0 mi WNW 3.5 mph - N/A   Clear
3:35 AM 30.9 °F - 13.5 °F 48% 30.23 in 10.0 mi Calm Calm - N/A   Clear
3:55 AM 31.1 °F - 13.8 °F 49% 30.22 in 10.0 mi Calm Calm - N/A   Clear
4:15 AM 30.7 °F - 13.8 °F 50% 30.20 in 10.0 mi Calm Calm - N/A   Clear
4:35 AM 30.9 °F - 14.4 °F 50% 30.20 in 10.0 mi Calm Calm - N/A   Clear
4:55 AM 32.0 °F 26.4 °F 14.5 °F 49% 30.20 in 10.0 mi NW 5.8 mph - N/A   Clear
5:35 AM 31.6 °F 27.0 °F 14.9 °F 50% 30.20 in 10.0 mi West 4.6 mph - N/A   Clear
5:55 AM 31.5 °F 26.8 °F 14.9 °F 50% 30.19 in 10.0 mi NNW 4.6 mph - N/A   Clear
6:15 AM 31.1 °F 27.7 °F 14.9 °F 51% 30.20 in 10.0 mi NNW 3.5 mph - N/A   Clear
6:35 AM 30.4 °F 26.9 °F 14.9 °F 53% 30.19 in 10.0 mi NNE 3.5 mph - N/A   Clear
6:55 AM 30.2 °F 24.3 °F 14.9 °F 53% 30.18 in 10.0 mi ENE 5.8 mph - N/A   Clear
7:15 AM 31.8 °F 28.5 °F 16.2 °F 52% 30.20 in 10.0 mi East 3.5 mph - N/A   Clear
7:35 AM 32.2 °F - 17.4 °F 55% 30.20 in 10.0 mi Calm Calm - N/A   Clear
7:55 AM 32.7 °F 29.6 °F 18.1 °F 55% 30.19 in 10.0 mi North 3.5 mph - N/A   Clear
8:15 AM 33.6 °F - 18.3 °F 54% 30.20 in 10.0 mi Calm Calm - N/A   Clear
8:35 AM 35.2 °F 32.4 °F 17.4 °F 48% 30.19 in 10.0 mi North 3.5 mph - N/A   Clear
8:55 AM 37.4 °F - 16.9 °F 43% 30.19 in 10.0 mi Calm Calm - N/A   Clear
9:15 AM 38.3 °F - 16.2 °F 41% 30.19 in 10.0 mi Calm Calm - N/A   Clear
9:35 AM 39.4 °F 37.2 °F 16.2 °F 39% 30.19 in 10.0 mi WNW 3.5 mph - N/A   Clear
9:55 AM 40.6 °F 37.5 °F 15.6 °F 36% 30.19 in 10.0 mi West 4.6 mph - N/A   Clear
10:15 AM 41.0 °F - 14.9 °F 35% 30.18 in 10.0 mi Calm Calm - N/A   Clear
10:35 AM 42.6 °F - 15.1 °F 33% 30.18 in 10.0 mi Calm Calm - N/A   Clear
10:55 AM 44.1 °F - 15.4 °F 32% 30.18 in 10.0 mi Calm Calm - N/A   Clear
11:15 AM 45.3 °F - 15.3 °F 30% 30.17 in 10.0 mi Calm Calm - N/A   Clear
11:35 AM 46.4 °F - 15.1 °F 28% 30.14 in 10.0 mi Calm Calm - N/A   Clear
11:55 AM 46.9 °F - 15.3 °F 28% 30.14 in 10.0 mi SSE 4.6 mph - N/A   Clear
12:15 PM 47.1 °F - 14.9 °F 28% 30.12 in 10.0 mi Calm Calm - N/A   Clear
12:35 PM 47.7 °F - 15.6 °F 28% 30.10 in 10.0 mi SSE 4.6 mph - N/A   Clear
12:55 PM 48.0 °F - 15.1 °F 27% 30.10 in 10.0 mi South 5.8 mph - N/A   Clear
1:15 PM 48.9 °F - 14.5 °F 25% 30.09 in 10.0 mi South 5.8 mph - N/A   Clear
1:35 PM 49.6 °F - 14.2 °F 24% 30.08 in 10.0 mi SSW 8.1 mph - N/A   Clear
1:55 PM 49.8 °F - 14.2 °F 24% 30.07 in 10.0 mi SSW 6.9 mph - N/A   Clear
2:15 PM 49.8 °F - 14.2 °F 24% 30.06 in 10.0 mi SSW 6.9 mph - N/A   Clear
2:35 PM 50.2 °F - 14.0 °F 24% 30.06 in 10.0 mi SSW 11.5 mph - N/A   Clear
3:15 PM 51.1 °F - 14.0 °F 23% 30.06 in 10.0 mi South 8.1 mph - N/A   Clear
3:35 PM 51.6 °F - 14.0 °F 22% 30.07 in 10.0 mi South 8.1 mph - N/A   Clear
3:55 PM 52.0 °F - 13.8 °F 22% 30.07 in 10.0 mi South 5.8 mph - N/A   Clear
4:15 PM 51.8 °F - 13.8 °F 22% 30.07 in 10.0 mi South 5.8 mph - N/A   Clear
4:35 PM 51.3 °F - 14.2 °F 23% 30.07 in 10.0 mi South 6.9 mph - N/A   Scattered Clouds
4:55 PM 50.5 °F - 14.4 °F 24% 30.05 in 10.0 mi SSE 8.1 mph - N/A   Scattered Clouds
5:15 PM 49.8 °F - 14.2 °F 24% 30.05 in 10.0 mi South 6.9 mph - N/A   Scattered Clouds
5:35 PM 49.5 °F - 14.4 °F 25% 30.05 in 10.0 mi South 4.6 mph - N/A   Scattered Clouds
5:55 PM 49.5 °F - 14.4 °F 25% 30.05 in 10.0 mi South 5.8 mph - N/A   Mostly Cloudy
6:15 PM 48.6 °F - 14.7 °F 26% 30.05 in 10.0 mi South 5.8 mph - N/A   Overcast
6:35 PM 48.6 °F - 14.9 °F 26% 30.04 in 10.0 mi South 5.8 mph - N/A   Overcast
6:55 PM 48.4 °F - 15.1 °F 26% 30.04 in 10.0 mi South 5.8 mph - N/A   Overcast
7:15 PM 48.6 °F - 15.6 °F 27% 30.05 in 10.0 mi South 6.9 mph - N/A   Overcast
7:35 PM 49.6 °F - 15.4 °F 26% 30.04 in 10.0 mi South 8.1 mph - N/A   Overcast
7:55 PM 49.1 °F - 15.4 °F 26% 30.04 in 10.0 mi SSW 6.9 mph - N/A   Mostly Cloudy
8:15 PM 48.4 °F - 15.6 °F 27% 30.04 in 10.0 mi South 6.9 mph - N/A   Scattered Clouds
8:35 PM 47.8 °F - 15.4 °F 27% 30.03 in 10.0 mi South 8.1 mph - N/A   Clear
8:55 PM 48.0 °F - 15.3 °F 27% 30.02 in 10.0 mi South 8.1 mph - N/A   Clear
9:15 PM 47.8 °F - 15.4 °F 27% 30.02 in 10.0 mi South 8.1 mph - N/A   Clear
9:35 PM 47.7 °F - 15.6 °F 28% 30.01 in 10.0 mi South 5.8 mph - N/A   Clear
9:55 PM 47.8 °F - 15.6 °F 28% 30.01 in 10.0 mi South 10.4 mph - N/A   Clear
10:15 PM 48.2 °F - 15.6 °F 27% 30.01 in 10.0 mi SSW 10.4 mph - N/A   Clear
10:35 PM 47.8 °F - 15.6 °F 28% 30.01 in 10.0 mi SSW 10.4 mph - N/A   Clear
10:55 PM 47.7 °F - 15.8 °F 28% 30.01 in 10.0 mi SSW 9.2 mph - N/A   Clear
11:15 PM 47.3 °F - 16.0 °F 29% 30.01 in 10.0 mi South 9.2 mph - N/A   Clear
11:35 PM 47.3 °F - 16.2 °F 29% 30.01 in 10.0 mi SSW 10.4 mph - N/A   Clear
11:55 PM 46.9 °F - 16.2 °F 29% 30.01 in 10.0 mi South 9.2 mph - N/A   Clear